Location: Unspecified
(49.2170°N, 0.0000°E)
Time: 18:35:48
(UTC+00:00)

A-11 Canister half - Pass Details

Date: 22 January 2021
Orbit: 1516 x 1684 km, 47.2° (Epoch: 05 March)

Event Time Altitude Azimuth Distance (km) Brightness Sun altitude
Exits shadow 04:35:49 16° 198° (SSW) 3,243 10.5 -30.3°
Drops below altitude 10° 04:38:20 10° 184° (S) 3,729 10.9 -29.9°
Sets 04:42:21 0° 170° (S) 4,736 11.7 -29.2°
